Regional Weather Roundup
Issued by NWS

Home | Current Version | Previous Version | Text Only | Print | Product List | Glossary On
Versions: 1 2 3 4 5 6 7 8 9 10 11 12 13 14 15 16 17 18 19 20 21 22 23 24 25 26 27 28 29 30 31 32 33 34 35 36 37 38 39 40 41 42 43 44 45 46 47 48 49 50
000
ASUS45 KBOU 100007
RWRCO

WEATHER ROUNDUP FOR COLORADO
NATIONAL WEATHER SERVICE DENVER/BOULDER CO
500 PM MST FRI DEC 09 2016

NOTE: "FAIR" INDICATES FEW OR NO CLOUDS BELOW 12000 FEET WITH NO
SIGNIFICANT WEATHER AND/OR OBSTRUCTIONS TO VISIBILITY.

COZ001>005-013-030-031-100100-
...NORTHWEST COLORADO...

CITY           SKY/WX    TMP DP  RH WIND       PRES   REMARKS
CRAIG          CLOUDY    34  27  75 NE7       30.18S WCI  28
HAYDEN         CLOUDY    30  23  74 E12       30.18F WCI  21
MEEKER         CLOUDY    39  24  55 W9        30.19S
MOUNT WERNER   NOT AVBL
STEAMBOAT SPGS CLOUDY    27  25  93 CALM      30.19S
WALDEN           N/A     32  23  69 S9        30.17F WCI  24
$$

COZ006>008-011-100100-
...WEST CENTRAL VALLEYS...

CITY           SKY/WX    TMP DP  RH WIND       PRES   REMARKS
GRAND JUNCTION FAIR      34  19  54 CALM      30.26F
MONTROSE       CLOUDY    36  20  52 N3        30.27R
EAGLE          FLURRIES  36  27  69 CALM      30.26R
RIFLE          CLOUDY    32  21  64 E5        30.26F WCI  27
DELTA          NOT AVBL
NUCLA          MOCLDY    43  21  42 CALM      30.28S
$$

COZ017>023-064>068-100100-
...SOUTHWEST COLORADO...

CITY           SKY/WX    TMP DP  RH WIND       PRES   REMARKS
DURANGO        FAIR      41  19  41 SE3       30.27R
CORTEZ         FAIR      44  26  49 CALM      30.27R
PAGOSA SPRINGS FAIR      35  19  53 CALM      30.29R
TELLURIDE      NOT AVBL
WOLF CREEK PAS FAIR      21  18  86 S10       30.37S WCI  10
$$

COZ009-010-012-014-032>034-037-058>063-100100-
...CENTRAL COLORADO...

CITY           SKY/WX    TMP DP  RH WIND       PRES   REMARKS
ASPEN          CLOUDY    30  26  85 NW5       30.23R WCI  25
BUENA VISTA    FAIR      39  18  43 SW12G21   30.16F
COPPER MTN     LGT SNOW  25  18  74 MISG      30.24S
BERTHOUD PASS  LGT SNOW  16   3  57 MISG      30.15F VSB 1
COTTONWOOD PAS FAIR      34  19  55 SW10G25   30.17R WCI  26
GUNNISON       FAIR      28  22  78 S6        30.27S WCI  22
KREMMLING      CLOUDY    37  30  75 W7        30.21S
LEADVILLE      CLOUDY    27  18  69 N13       30.21F WCI  16
MONARCH PASS     N/A     21  19  93 W43G52    30.34F WCI   0
SALIDA         FAIR      44  19  36 SW20G30   30.22S
SUNLIGHT       LGT SNOW  23  21  93 SW14G22   30.28S WCI  11
WILKERSON PASS FAIR      27  16  63 SW9G20    30.21S WCI  17
$$

COZ069>075-100100-
...SAN LUIS VALLEY/SANGRE DE CRISTO MOUNTAINS...

CITY           SKY/WX    TMP DP  RH WIND       PRES   REMARKS
ALAMOSA        FAIR      37  20  50 CALM      30.23R
LA VETA PASS   FAIR      28  19  69 NE22G29   30.23S WCI  15
SAGUACHE       FAIR      30  18  59 E7        30.25R WCI  23
$$

COZ035-036-038>040-100100-
...NORTHERN COLORADO FRONT RANGE...

CITY           SKY/WX    TMP DP  RH WIND       PRES   REMARKS
DENVER INTL AP MOCLDY    30  23  75 E10       30.09R WCI  21
DMNS CITY PARK   N/A     43  25  48 E9        30.07S
AURORA         MOCLDY    38  28  67 E8        30.08S
FRONT RANGE AP MOCLDY    32  27  80 E8        30.11  WCI  25
ERIE MUNI ARPT FAIR      27  23  84 NW7       30.09S WCI  20
BOULDER MUN AP CLOUDY    28  21  74 N6        30.09S WCI  22
CENTENNIAL     MOCLDY    39  25  57 E6        30.07F
BROOMFIELD     MOCLDY    37  27  65 N3        30.08R
FORT COLLINS   FAIR      28  19  69 CALM      30.11R
LONGMONT       FAIR      28  20  71 CALM      30.13R
$$

COZ041-046-047-076>085-087-088-100100-
...PIKES PEAK/PALMER DIVIDE AND SOUTHERN FOOTHILLS...

CITY           SKY/WX    TMP DP  RH WIND       PRES   REMARKS
COLO. SPRINGS  MOCLDY    42  21  43 E5        30.11S
A. F. ACADEMY  FAIR      41  26  55 CALM      30.10R
SCHRIEVER AFB  NOT AVBL
ELLICOTT       FAIR     N/A N/A N/A CALM      30.09F
FALCON         FAIR      36  23  59 W5        30.12S
FORT CARSON    FAIR      39  21  48 SW1       30.09R
LIMON          FAIR      35  25  66 E13       30.10F WCI  26
MONUMENT HILL  FAIR      36  21  55 E6        30.12S
TRINIDAD       FAIR      51  17  26 E3        30.11F
$$

COZ042>045-048>051-090-091-100100-
...NORTHEAST COLORADO...

CITY           SKY/WX    TMP DP  RH WIND       PRES   REMARKS
GREELEY ARPT   FAIR      29  20  69 E5        30.13R WCI  24
AKRON          FAIR      23  16  74 SE10      30.14S WCI  12
BURLINGTON     FAIR      28  17  63 SE8       30.18R WCI  20
WRAY           NOT AVBL
STERLING       FAIR      28  19  69 NE7       30.17R WCI  21
HOLYOKE        FAIR      25  18  74 NE7       30.21S WCI  17
FORT MORGAN    FAIR      23  18  80 E9        30.15R WCI  13
$$

COZ086-089-092>099-100100-
...SOUTHEAST COLORADO...

CITY           SKY/WX    TMP DP  RH WIND       PRES   REMARKS
PUEBLO         FAIR      36  13  38 E8        30.09S
LA JUNTA       FAIR      34  11  38 E7        30.12S WCI  28
LAMAR          FAIR      31  12  45 E8        30.13F WCI  23
SPRINGFIELD      N/A     33  20  58 S8        30.15S WCI  26
$$



USA.gov is the U.S. government's official web portal to all federal, state and local government web resources and services.